{"data":{"norad_id":39177,"intl_designator":"2013-028A","name":"COSMOS 2486","alt_names":[],"object_type":"PAYLOAD","status":"ACTIVE","operator":null,"country":"CIS","launch_date":"2013-06-07","launch_site_code":"PLMSC","launch_vehicle":null,"mission":null,"orbit_class":"UNKNOWN","rcs_meters":16.049,"size_class":null,"mass_kg":null,"dimensions":null,"purposes":[],"wikipedia_slug":null,"has_3d_model":false,"image_url":null,"decayed_at":null,"tle_current":{"epoch":"2026-05-25T04:49:03.218880Z","epoch_age_seconds":57766,"freshness":"FRESH","line1":"1 39177U 13028A   26145.20073170  .00000365  00000+0  92515-4 0  9998","line2":"2 39177  98.0127 113.4958 0012322  87.3208 272.9401 14.56183161688031","mean_motion":14.56183161,"eccentricity":0.0012322,"inclination_deg":98.0127,"raan_deg":113.4958,"arg_perigee_deg":87.3208,"mean_anomaly_deg":272.9401,"bstar":9.2515e-5,"rev_number":68803,"period_min":98.88865896589,"perigee_km":696.79663805956,"apogee_km":714.25361500419,"semimajor_km":7083.6621265319,"source":"CELESTRAK","updated_at":"2026-05-25T13:37:55.366929Z"}}}